#timestamp,LO_Frequency,Hit,StdDev 
1523952015.7,286047003.5,N
1523952035.5,286047003.9,N
1523952055.4,286047003.6,N
1523952075.2,286047002.9,N
1523952095.0,286047001.4,N
1523952095.9,286047001.4,N
1523952115.8,286047004.4,N
1523952135.6,286047002.8,N
1523952155.4,286047001.0,N
1523952175.3,286047001.1,N
1523952195.1,286046999.8,N
1523952215.9,286047002.1,N
1523952235.7,286047002.8,N
1523952255.5,286047001.4,N
1523952275.4,286047004.0,N
1523952295.2,286047001.7,N
1523952315.0,286047004.4,N
1523952315.9,286047004.4,N
1523952335.8,286047003.7,N
1523952355.6,286047001.3,N
1523952375.5,286047002.7,N
1523952395.3,286046999.7,N
1523952415.1,286047002.3,N
1523952435.9,286047000.4,N
1523952455.7,286047002.5,N
1523952475.5,286047001.6,N
1523952495.4,286047004.1,N
1523952515.2,286047003.6,N
1523952535.1,286047005.6,Y
1523952536.0,286047005.6,P
1523952555.8,286047000.0,N
1523952575.6,286047000.3,N
1523952595.5,286046999.9,N
1523952615.3,286046998.6,N
1523952635.2,286046998.1,N
1523952655.9,286047000.1,N
1523952675.7,286046998.5,N
1523952695.6,286046998.7,N
1523952715.4,286046998.6,N
1523952735.2,286047001.1,N
1523952755.1,286046998.2,N
1523952756.0,286046998.2,N
1523952775.8,286046998.8,N
1523952795.7,286046998.4,N
1523952815.5,286046998.8,N
1523952835.3,286047001.2,N
1523952855.2,286047000.8,N
1523952875.0,286046998.8,N
1523952875.9,286046998.8,N
1523952895.8,286046999.5,N
1523952915.6,286046998.2,N
1523952935.4,286046998.6,N
1523952955.3,286047001.2,N
1523952975.1,286046998.2,N
1523952995.8,286046998.6,N
1523953015.7,286046998.2,N
1523953035.5,286047000.8,N
1523953055.4,286046998.8,N
1523953075.2,286046998.4,N
1523953095.0,286046998.9,N
1523953095.9,286046998.9,N
1523953115.8,286046997.0,Y
1523953135.6,286046995.4,P
1523953155.5,286046995.3,N
1523953175.3,286046997.6,N
1523953195.1,286046998.0,N
1523953215.9,286046996.1,N
1523953235.7,286046997.6,N
1523953255.6,286046995.3,Y
1523953275.4,286046998.7,P
1523953295.2,286047000.3,N
1523953315.1,286047000.1,N
1523953316.0,286047000.1,N
1523953335.8,286046999.9,N
1523953355.6,286047000.8,N
1523953375.5,286047001.2,N
1523953425.4,286046997.7,E
1523953435.3,286046999.1,N
1523953455.1,286047000.7,P
1523953475.9,286046998.3,N
1523953495.7,286046998.9,N
1523953515.5,286046998.6,N
1523953535.4,286046998.7,N
1523953555.2,286046995.7,Y
1523953575.0,286046994.2,P
1523953575.9,286046994.2,N
1523953595.8,286046995.6,N
1523953615.6,286046995.7,N
1523953635.5,286046997.7,N
1523953655.3,286046998.2,N
1523953675.1,286047000.9,N
1523953695.9,286047000.9,N
1523953715.7,286047000.1,N
1523953735.5,286046998.2,N
1523953755.4,286046999.5,N
1523953775.2,286046998.8,N
1523953795.1,286046999.0,N
1523953796.0,286046999.0,N
1523953815.8,286046999.6,N
1523953835.6,286046999.6,N
1523953855.5,286046999.2,N
1523953875.3,286046995.3,N
1523953895.1,286046995.9,N
1523953915.9,286046993.6,Y
1523953935.7,286046999.6,P
1523953955.6,286046996.7,P
1523953975.4,286046998.5,N
1523953995.2,286046999.1,N
1523954015.1,286046997.6,N
1523954016.0,286046997.6,N
1523954035.8,286046997.9,N
1523954055.7,286046995.2,Y
1523954075.5,286047000.8,P
1523954095.3,286046998.6,N
1523954115.2,286047001.1,N
1523954135.0,286046998.1,N
1523954135.9,286046998.1,N
1523954155.8,286046999.9,N
1523954175.6,286047000.9,N
1523954195.4,286046999.7,N
1523954215.3,286047002.1,N
1523954235.1,286047001.3,N
1523954255.8,286047001.6,N
1523954275.7,286047001.6,N
1523954295.5,286047004.1,N
1523954315.4,286047003.9,N
1523954335.2,286047004.4,N
1523954355.0,286047003.2,N
1523954355.9,286047003.2,N
1523954375.8,286047004.8,N
1523954395.6,286047005.6,N
1523954415.4,286047003.5,N
1523954435.3,286047002.9,N
1523954455.1,286047003.4,N
1523954475.9,286047003.1,N
1523954495.7,286047004.9,N
1523954515.5,286047004.9,N
1523954535.4,286047007.4,Y
1523954555.2,286047005.3,P
1523954575.0,286047005.3,P
1523954576.0,286047005.3,P
1523954595.8,286047007.5,Y
1523954615.6,286047001.3,P
1523954635.5,286047002.4,N
1523954655.3,286047003.7,N
1523954675.1,286047004.2,Y
1523954695.9,286047003.3,P
1523954715.7,286047003.8,P
1523954735.6,286046998.5,P
1523954755.4,286046995.5,N
1523954775.2,286046995.7,N
1523954795.1,286046997.5,N
1523954796.0,286046997.5,N
1523954815.8,286046997.3,N
1523954835.7,286046996.3,N
1523954855.5,286046994.4,N
1523954875.3,286046994.2,N
1523954895.2,286046992.1,N
1523954915.0,286046993.8,N
1523954915.9,286046993.8,N
1523954935.7,286046996.3,N
1523954955.6,286046994.7,N
1523954975.4,286046994.2,N
1523954995.3,286046994.8,N
1523955015.1,286046992.1,N
1523955016.0,286046986.3,Y
1523955035.8,286046994.2,P
1523955055.7,286046991.8,P
1523955075.5,286046992.9,P
1523955095.4,286046994.8,Y
1523955115.2,286046998.2,P
1523955135.0,286047000.2,N
1523955135.9,286047000.2,N
1523955155.8,286047000.3,N
1523955175.6,286047000.4,N
1523955195.4,286046998.1,N
1523955215.3,286046999.5,N
1523955235.1,286046998.1,N
1523955255.9,286046998.2,N
1523955275.7,286046999.0,N
1523955295.5,286046998.9,N
1523955315.4,286046998.2,N
1523955335.2,286047000.5,N
1523955355.0,286047000.8,N
1523955355.9,286047000.8,N
1523955375.8,286047002.0,N
1523955395.6,286047002.0,N
1523955415.5,286047002.1,N
1523955435.3,286047000.8,N
1523955455.1,286047000.5,N
1523955475.9,286047000.5,N
1523955495.7,286047001.2,N
1523955515.5,286047001.2,N
1523955535.4,286047000.8,N
1523955555.2,286047000.0,N
1523955575.1,286047002.2,N
1523955576.0,286047002.2,N
1523955595.8,286047001.9,N
